Year,Month,Day,Hour,Minute,Value (Times are PST for temperature in C)
2014,06,15,00,00,10.70
2014,06,15,00,01,10.70
2014,06,15,00,02,10.70
2014,06,15,00,03,10.70
2014,06,15,00,04,10.70
2014,06,15,00,05,10.70
2014,06,15,00,06,10.70
2014,06,15,00,07,10.70
2014,06,15,00,08,10.70
2014,06,15,00,09,10.70
2014,06,15,00,10,10.60
2014,06,15,00,11,10.60
2014,06,15,00,12,10.60
2014,06,15,00,13,10.60
2014,06,15,00,14,10.60
2014,06,15,00,15,10.60
2014,06,15,00,16,10.60
2014,06,15,00,17,10.50
2014,06,15,00,18,10.60
2014,06,15,00,19,10.50
2014,06,15,00,20,10.50
2014,06,15,00,21,10.50
2014,06,15,00,22,10.50
2014,06,15,00,23,10.50
2014,06,15,00,24,10.50
2014,06,15,00,25,10.50
2014,06,15,00,26,10.50
2014,06,15,00,27,10.50
2014,06,15,00,28,10.50
2014,06,15,00,29,10.50
2014,06,15,00,30,10.50
2014,06,15,00,31,10.50
2014,06,15,00,32,10.50
2014,06,15,00,33,10.50
2014,06,15,00,34,10.50
2014,06,15,00,35,10.50
2014,06,15,00,36,10.50
2014,06,15,00,37,10.40
2014,06,15,00,38,10.40
2014,06,15,00,39,10.40
2014,06,15,00,40,10.40
2014,06,15,00,41,10.40
2014,06,15,00,42,10.40
2014,06,15,00,43,10.40
2014,06,15,00,44,10.40
2014,06,15,00,45,10.40
2014,06,15,00,46,10.40
2014,06,15,00,47,10.40
2014,06,15,00,48,10.40
2014,06,15,00,49,10.40
2014,06,15,00,50,10.40
2014,06,15,00,51,10.40
2014,06,15,00,52,10.40
2014,06,15,00,53,10.40
2014,06,15,00,54,10.40
2014,06,15,00,55,10.40
2014,06,15,00,56,10.40
2014,06,15,00,57,10.40
2014,06,15,00,58,10.40
2014,06,15,00,59,10.40
2014,06,15,01,00,10.40
2014,06,15,01,01,10.40
2014,06,15,01,02,10.30
2014,06,15,01,03,10.40
2014,06,15,01,04,10.40
2014,06,15,01,05,10.30
2014,06,15,01,06,10.30
2014,06,15,01,07,10.30
2014,06,15,01,08,10.30
2014,06,15,01,09,10.30
2014,06,15,01,10,10.30
2014,06,15,01,11,10.30
2014,06,15,01,12,10.30
2014,06,15,01,13,10.30
2014,06,15,01,14,10.30
2014,06,15,01,15,10.30
2014,06,15,01,16,10.30
2014,06,15,01,17,10.30
2014,06,15,01,18,10.30
2014,06,15,01,19,10.30
2014,06,15,01,20,10.30
2014,06,15,01,21,10.30
2014,06,15,01,22,10.30
2014,06,15,01,23,10.30
2014,06,15,01,24,10.30
2014,06,15,01,25,10.20
2014,06,15,01,26,10.20
2014,06,15,01,27,10.20
2014,06,15,01,28,10.20
2014,06,15,01,29,10.20
2014,06,15,01,30,10.20
2014,06,15,01,31,10.20
2014,06,15,01,32,10.20
2014,06,15,01,33,10.20
2014,06,15,01,34,10.20
2014,06,15,01,35,10.20
2014,06,15,01,36,10.20
2014,06,15,01,37,10.20
2014,06,15,01,38,10.20
2014,06,15,01,39,10.20
2014,06,15,01,40,10.20
2014,06,15,01,41,10.20
2014,06,15,01,42,10.20
2014,06,15,01,43,10.20
2014,06,15,01,44,10.20
2014,06,15,01,45,10.20
2014,06,15,01,46,10.20
2014,06,15,01,47,10.20
2014,06,15,01,48,10.20
2014,06,15,01,49,10.20
2014,06,15,01,50,10.20
2014,06,15,01,51,10.10
2014,06,15,01,52,10.10
2014,06,15,01,53,10.10
2014,06,15,01,54,10.10
2014,06,15,01,55,10.10
2014,06,15,01,56,10.10
2014,06,15,01,57,10.10
2014,06,15,01,58,10.20
2014,06,15,01,59,10.20
2014,06,15,02,00,10.20
2014,06,15,02,01,10.10
2014,06,15,02,02,10.10
2014,06,15,02,03,10.10
2014,06,15,02,04,10.10
2014,06,15,02,05,10.10
2014,06,15,02,06,10.10
2014,06,15,02,07,10.10
2014,06,15,02,08,10.10
2014,06,15,02,09,10.10
2014,06,15,02,10,10.10
2014,06,15,02,11,10.10
2014,06,15,02,12,10.10
2014,06,15,02,13,10.10
2014,06,15,02,14,10.10
2014,06,15,02,15,10.10
2014,06,15,02,16,10.10
2014,06,15,02,17,10.10
2014,06,15,02,18,10.10
2014,06,15,02,19,10.10
2014,06,15,02,20,10.10
2014,06,15,02,21,10.10
2014,06,15,02,22,10.10
2014,06,15,02,23,10.10
2014,06,15,02,24,10.10
2014,06,15,02,25,10.10
2014,06,15,02,26,10.10
2014,06,15,02,27,10.10
2014,06,15,02,28,10.10
2014,06,15,02,29,10.10
2014,06,15,02,30,10.10
2014,06,15,02,31,10.10
2014,06,15,02,32,10.10
2014,06,15,02,33,10.10
2014,06,15,02,34,10.10
2014,06,15,02,35,10.10
2014,06,15,02,36,10.10
2014,06,15,02,37,10.10
2014,06,15,02,38,10.10
2014,06,15,02,39,10.10
2014,06,15,02,40,10.10
2014,06,15,02,41,10.10
2014,06,15,02,42,10.10
2014,06,15,02,43,10.10
2014,06,15,02,44,10.10
2014,06,15,02,45,10.10
2014,06,15,02,46,10.10
2014,06,15,02,47,10.10
2014,06,15,02,48,10.10
2014,06,15,02,49,10.10
2014,06,15,02,50,10.00
2014,06,15,02,51,10.00
2014,06,15,02,52,10.00
2014,06,15,02,53,10.00
2014,06,15,02,54,10.00
2014,06,15,02,55,10.00
2014,06,15,02,56,10.00
2014,06,15,02,57,10.00
2014,06,15,02,58,10.00
2014,06,15,02,59,10.00
2014,06,15,03,00,10.00
2014,06,15,03,01,10.00
2014,06,15,03,02,10.00
2014,06,15,03,03,10.00
2014,06,15,03,04,9.90
2014,06,15,03,05,9.90
2014,06,15,03,06,9.90
2014,06,15,03,07,9.90
2014,06,15,03,08,9.90
2014,06,15,03,09,9.90
2014,06,15,03,10,9.90
2014,06,15,03,11,9.90
2014,06,15,03,12,9.90
2014,06,15,03,13,9.90
2014,06,15,03,14,9.90
2014,06,15,03,15,9.90
2014,06,15,03,16,9.90
2014,06,15,03,17,9.90
2014,06,15,03,18,9.90
2014,06,15,03,19,9.90
2014,06,15,03,20,9.90
2014,06,15,03,21,9.90
2014,06,15,03,22,9.90
2014,06,15,03,23,9.90
2014,06,15,03,24,9.90
2014,06,15,03,25,9.90
2014,06,15,03,26,9.90
2014,06,15,03,27,9.90
2014,06,15,03,28,9.90
2014,06,15,03,29,9.90
2014,06,15,03,30,9.90
2014,06,15,03,31,9.90
2014,06,15,03,32,9.80
2014,06,15,03,33,9.80
2014,06,15,03,34,9.80
2014,06,15,03,35,9.80
2014,06,15,03,36,9.80
2014,06,15,03,37,9.80
2014,06,15,03,38,9.80
2014,06,15,03,39,9.80
2014,06,15,03,40,9.80
2014,06,15,03,41,9.80
2014,06,15,03,42,9.80
2014,06,15,03,43,9.80
2014,06,15,03,44,9.80
2014,06,15,03,45,9.80
2014,06,15,03,46,9.80
2014,06,15,03,47,9.80
2014,06,15,03,48,9.80
2014,06,15,03,49,9.80
2014,06,15,03,50,9.80
2014,06,15,03,51,9.80
2014,06,15,03,52,9.80
2014,06,15,03,53,9.80
2014,06,15,03,54,9.80
2014,06,15,03,55,9.80
2014,06,15,03,56,9.80
2014,06,15,03,57,9.80
2014,06,15,03,58,9.80
2014,06,15,03,59,9.80
2014,06,15,04,00,9.80
2014,06,15,04,01,9.80
2014,06,15,04,02,9.80
2014,06,15,04,03,9.80
2014,06,15,04,04,9.80
2014,06,15,04,05,9.80
2014,06,15,04,06,9.80
2014,06,15,04,07,9.80
2014,06,15,05,02,9.60
2014,06,15,05,03,9.60
2014,06,15,05,04,9.60
2014,06,15,05,05,9.60
2014,06,15,05,06,9.60
2014,06,15,05,07,9.60
2014,06,15,05,08,9.60
2014,06,15,05,09,9.50
2014,06,15,05,10,9.50
2014,06,15,05,11,9.50
2014,06,15,05,12,9.50
2014,06,15,05,13,9.50
2014,06,15,05,14,9.50
2014,06,15,05,15,9.50
2014,06,15,05,16,9.50
2014,06,15,05,17,9.50
2014,06,15,05,18,9.50
2014,06,15,05,19,9.50
2014,06,15,05,20,9.50
2014,06,15,05,21,9.50
2014,06,15,05,22,9.50
2014,06,15,05,23,9.50
2014,06,15,05,24,9.50
2014,06,15,05,25,9.50
2014,06,15,05,26,9.50
2014,06,15,05,27,9.50
2014,06,15,05,28,9.50
2014,06,15,05,29,9.50
2014,06,15,05,30,9.50
2014,06,15,05,31,9.50
2014,06,15,05,32,9.50
2014,06,15,05,33,9.50
2014,06,15,05,34,9.50
2014,06,15,05,35,9.50
2014,06,15,05,36,9.50
2014,06,15,05,37,9.50
2014,06,15,05,38,9.50
2014,06,15,05,39,9.50
2014,06,15,05,40,9.50
2014,06,15,05,41,9.50
2014,06,15,05,42,9.50
2014,06,15,05,43,9.50
2014,06,15,05,44,9.50
2014,06,15,05,45,9.50
2014,06,15,05,46,9.50
2014,06,15,05,47,9.50
2014,06,15,05,48,9.50
2014,06,15,05,49,9.50
2014,06,15,05,50,9.50
2014,06,15,05,51,9.50
2014,06,15,05,52,9.50
2014,06,15,05,53,9.50
2014,06,15,05,54,9.50
2014,06,15,05,55,9.50
2014,06,15,05,56,9.50
2014,06,15,05,57,9.50
2014,06,15,05,58,9.50
2014,06,15,05,59,9.50
2014,06,15,06,00,9.50
2014,06,15,06,01,9.50
2014,06,15,06,02,9.50
2014,06,15,06,03,9.50
2014,06,15,06,04,9.50
2014,06,15,06,05,9.50
2014,06,15,06,06,9.50
2014,06,15,06,07,9.50
2014,06,15,06,08,9.50
2014,06,15,06,09,9.50
2014,06,15,06,10,9.50
2014,06,15,06,11,9.50
2014,06,15,06,12,9.50
2014,06,15,06,13,9.60
2014,06,15,06,14,9.60
2014,06,15,06,15,9.60
2014,06,15,06,16,9.60
2014,06,15,06,17,9.60
2014,06,15,06,18,9.60
2014,06,15,06,19,9.60
2014,06,15,06,20,9.60
2014,06,15,06,21,9.60
2014,06,15,06,22,9.60
2014,06,15,06,23,9.60
2014,06,15,06,24,9.60
2014,06,15,06,25,9.60
2014,06,15,06,26,9.60
2014,06,15,06,27,9.60
2014,06,15,06,28,9.60
2014,06,15,06,29,9.60
2014,06,15,06,30,9.70
2014,06,15,06,31,9.70
2014,06,15,06,32,9.70
2014,06,15,06,33,9.70
2014,06,15,06,34,9.70
2014,06,15,06,35,9.70
2014,06,15,06,36,9.70
2014,06,15,06,37,9.70
2014,06,15,06,38,9.70
2014,06,15,06,39,9.70
2014,06,15,06,40,9.70
2014,06,15,06,41,9.80
2014,06,15,06,42,9.80
2014,06,15,06,43,9.80
2014,06,15,06,44,9.80
2014,06,15,06,45,9.90
2014,06,15,06,46,10.00
2014,06,15,06,47,10.00
2014,06,15,06,48,10.10
2014,06,15,06,49,10.10
2014,06,15,06,50,10.20
2014,06,15,06,51,10.20
2014,06,15,06,52,10.30
2014,06,15,06,53,10.30
2014,06,15,06,54,10.30
2014,06,15,06,55,10.40
2014,06,15,06,56,10.40
2014,06,15,06,57,10.40
2014,06,15,06,58,10.50
2014,06,15,06,59,10.60
2014,06,15,07,00,10.60
2014,06,15,07,01,10.70
2014,06,15,07,02,10.70
2014,06,15,07,03,10.80
2014,06,15,07,04,10.80
2014,06,15,07,05,10.90
2014,06,15,07,06,11.00
2014,06,15,07,07,11.00
2014,06,15,07,08,11.10
2014,06,15,07,09,11.10
2014,06,15,07,10,11.10
2014,06,15,07,11,11.20
2014,06,15,07,12,11.20
2014,06,15,07,13,11.30
2014,06,15,07,14,11.30
2014,06,15,07,15,11.30
2014,06,15,07,16,11.40
2014,06,15,07,17,11.40
2014,06,15,07,18,11.40
2014,06,15,07,19,11.40
2014,06,15,07,20,11.40
2014,06,15,07,21,11.50
2014,06,15,07,22,11.50
2014,06,15,07,23,11.60
2014,06,15,07,24,11.60
2014,06,15,07,25,11.60
2014,06,15,07,26,11.70
2014,06,15,07,27,11.70
2014,06,15,07,28,11.70
2014,06,15,07,29,11.70
2014,06,15,07,30,11.80
2014,06,15,07,31,11.80
2014,06,15,07,32,11.90
2014,06,15,07,33,11.90
2014,06,15,07,34,12.00
2014,06,15,07,35,12.00
2014,06,15,07,36,12.10
2014,06,15,07,37,12.10
2014,06,15,07,38,12.10
2014,06,15,07,39,12.10
2014,06,15,07,40,12.00
2014,06,15,07,41,12.00
2014,06,15,07,42,11.90
2014,06,15,07,43,11.90
2014,06,15,07,44,11.80
2014,06,15,07,45,11.80
2014,06,15,07,46,11.80
2014,06,15,07,47,11.70
2014,06,15,07,48,11.70
2014,06,15,07,49,11.70
2014,06,15,07,50,11.70
2014,06,15,07,51,11.70
2014,06,15,07,52,11.70
2014,06,15,07,53,11.70
2014,06,15,07,54,11.70
2014,06,15,07,55,11.70
2014,06,15,07,56,11.70
2014,06,15,07,57,11.80
2014,06,15,07,58,11.80
2014,06,15,07,59,11.80
2014,06,15,08,00,11.80
2014,06,15,08,01,11.90
2014,06,15,08,02,11.90
2014,06,15,08,03,11.90
2014,06,15,08,04,11.90
2014,06,15,08,05,11.90
2014,06,15,08,06,11.90
2014,06,15,08,07,11.90
2014,06,15,08,08,12.00
2014,06,15,08,09,12.00
2014,06,15,08,10,12.00
2014,06,15,08,11,12.10
2014,06,15,08,12,12.10
2014,06,15,08,13,12.10
2014,06,15,08,14,12.10
2014,06,15,08,15,12.10
2014,06,15,08,16,12.10
2014,06,15,08,17,12.10
2014,06,15,08,18,12.10
2014,06,15,08,19,12.10
2014,06,15,08,20,12.10
2014,06,15,08,21,12.10
2014,06,15,08,22,12.10
2014,06,15,08,23,12.10
2014,06,15,08,24,12.10
2014,06,15,08,25,12.10
2014,06,15,08,26,12.10
2014,06,15,08,27,12.10
2014,06,15,08,28,12.10
2014,06,15,08,29,12.10
2014,06,15,08,30,12.10
2014,06,15,08,31,12.10
2014,06,15,08,32,12.10
2014,06,15,08,33,12.10
2014,06,15,08,34,12.10
2014,06,15,08,35,12.10
2014,06,15,08,36,12.20
2014,06,15,08,37,12.20
2014,06,15,08,38,12.20
2014,06,15,08,39,12.20
2014,06,15,08,40,12.20
2014,06,15,08,41,12.20
2014,06,15,08,42,12.20
2014,06,15,08,43,12.20
2014,06,15,08,44,12.20
2014,06,15,08,45,12.20
2014,06,15,08,46,12.20
2014,06,15,08,47,12.20
2014,06,15,08,48,12.20
2014,06,15,08,49,12.20
2014,06,15,08,50,12.20
2014,06,15,08,51,12.20
2014,06,15,08,52,12.20
2014,06,15,08,53,12.20
2014,06,15,08,54,12.20
2014,06,15,08,55,12.20
2014,06,15,08,56,12.30
2014,06,15,08,57,12.30
2014,06,15,08,58,12.30
2014,06,15,08,59,12.30
2014,06,15,09,00,12.30
2014,06,15,09,01,12.40
2014,06,15,09,02,12.40
2014,06,15,09,03,12.40
2014,06,15,09,04,12.40
2014,06,15,09,05,12.40
2014,06,15,09,06,12.40
2014,06,15,09,07,12.40
2014,06,15,09,08,12.40
2014,06,15,09,09,12.40
2014,06,15,09,10,12.40
2014,06,15,09,11,12.40
2014,06,15,09,12,12.50
2014,06,15,09,13,12.50
2014,06,15,09,14,12.50
2014,06,15,09,15,12.60
2014,06,15,09,16,12.60
2014,06,15,09,17,12.60
2014,06,15,09,18,12.60
2014,06,15,09,19,12.60
2014,06,15,09,20,12.60
2014,06,15,09,21,12.60
2014,06,15,09,22,12.70
2014,06,15,09,23,12.80
2014,06,15,09,24,12.80
2014,06,15,09,25,12.90
2014,06,15,09,26,13.00
2014,06,15,09,27,13.10
2014,06,15,09,28,13.20
2014,06,15,09,29,13.30
2014,06,15,09,30,13.30
2014,06,15,09,31,13.30
2014,06,15,09,32,13.30
2014,06,15,09,33,13.30
2014,06,15,09,34,13.30
2014,06,15,09,35,13.30
2014,06,15,09,36,13.20
2014,06,15,09,37,13.20
2014,06,15,09,38,13.30
2014,06,15,09,39,13.30
2014,06,15,09,40,13.40
2014,06,15,09,41,13.40
2014,06,15,09,42,13.50
2014,06,15,09,43,13.60
2014,06,15,09,44,13.60
2014,06,15,09,45,13.70
2014,06,15,09,46,13.70
2014,06,15,09,47,13.70
2014,06,15,09,48,13.70
2014,06,15,09,49,13.70
2014,06,15,09,50,13.70
2014,06,15,09,51,13.70
2014,06,15,09,52,13.80
2014,06,15,09,53,13.90
2014,06,15,09,54,14.00
2014,06,15,09,55,14.00
2014,06,15,09,56,14.00
2014,06,15,09,57,13.90
2014,06,15,09,58,14.00
2014,06,15,09,59,14.00
2014,06,15,10,00,14.10
2014,06,15,10,01,14.10
2014,06,15,10,02,14.10
2014,06,15,10,03,14.00
2014,06,15,10,04,14.00
2014,06,15,10,05,13.90
2014,06,15,10,06,13.90
2014,06,15,10,07,13.80
2014,06,15,10,08,13.70
2014,06,15,10,09,13.70
2014,06,15,10,10,13.60
2014,06,15,10,11,13.60
2014,06,15,10,12,13.50
2014,06,15,10,13,13.50
2014,06,15,10,14,13.50
2014,06,15,10,15,13.40
2014,06,15,10,16,13.40
2014,06,15,10,17,13.40
2014,06,15,10,18,13.40
2014,06,15,10,19,13.40
2014,06,15,10,20,13.50
2014,06,15,10,21,13.50
2014,06,15,10,22,13.60
2014,06,15,10,23,13.70
2014,06,15,10,24,13.80
2014,06,15,10,25,13.80
2014,06,15,10,26,13.90
2014,06,15,10,27,13.90
2014,06,15,10,28,14.00
2014,06,15,10,29,14.00
2014,06,15,10,30,14.10
2014,06,15,10,31,14.10
2014,06,15,10,32,14.10
2014,06,15,10,33,14.10
2014,06,15,10,34,14.10
2014,06,15,10,35,14.10
2014,06,15,10,36,14.10
2014,06,15,10,37,14.10
2014,06,15,10,38,14.10
2014,06,15,10,39,14.10
2014,06,15,10,40,14.10
2014,06,15,10,41,14.10
2014,06,15,10,42,14.10
2014,06,15,10,43,14.10
2014,06,15,10,44,14.10
2014,06,15,10,45,14.10
2014,06,15,10,46,14.00
2014,06,15,10,47,14.00
2014,06,15,10,48,14.10
2014,06,15,10,49,14.10
2014,06,15,10,50,14.20
2014,06,15,10,51,14.20
2014,06,15,10,52,14.20
2014,06,15,10,53,14.20
2014,06,15,10,54,14.20
2014,06,15,10,55,14.30
2014,06,15,10,56,14.40
2014,06,15,10,57,14.50
2014,06,15,10,58,14.50
2014,06,15,10,59,14.50
2014,06,15,11,00,14.50
2014,06,15,11,01,14.60
2014,06,15,11,02,14.70
2014,06,15,11,03,14.80
2014,06,15,11,04,14.80
2014,06,15,11,05,14.80
2014,06,15,11,06,14.80
2014,06,15,11,07,14.80
2014,06,15,11,08,14.80
2014,06,15,11,09,14.90
2014,06,15,11,10,15.00
2014,06,15,11,11,15.00
2014,06,15,11,12,15.10
2014,06,15,11,13,15.20
2014,06,15,11,14,15.20
2014,06,15,11,15,15.20
2014,06,15,11,16,15.20
2014,06,15,11,17,15.10
2014,06,15,11,18,15.00
2014,06,15,11,19,14.90
2014,06,15,11,20,14.90
2014,06,15,11,21,14.80
2014,06,15,11,22,14.80
2014,06,15,11,23,14.80
2014,06,15,11,24,14.70
2014,06,15,11,25,14.80
2014,06,15,11,26,14.90
2014,06,15,11,27,15.00
2014,06,15,11,28,15.00
2014,06,15,11,29,15.10
2014,06,15,11,30,15.10
2014,06,15,11,31,15.10
2014,06,15,11,32,15.20
2014,06,15,11,33,15.20
2014,06,15,11,34,15.30
2014,06,15,11,35,15.30
2014,06,15,11,36,15.30
2014,06,15,11,37,15.30
2014,06,15,11,38,15.30
2014,06,15,11,39,15.30
2014,06,15,11,40,15.30
2014,06,15,11,41,15.30
2014,06,15,11,42,15.40
2014,06,15,11,43,15.30
2014,06,15,11,44,15.20
2014,06,15,11,45,15.10
2014,06,15,11,46,15.10
2014,06,15,11,47,15.10
2014,06,15,11,48,15.10
2014,06,15,11,49,15.10
2014,06,15,11,50,15.10
2014,06,15,11,51,15.10
2014,06,15,11,52,15.10
2014,06,15,11,53,15.10
2014,06,15,11,54,15.10
2014,06,15,11,55,15.00
2014,06,15,11,56,15.00
2014,06,15,11,57,15.00
2014,06,15,11,58,15.00
2014,06,15,11,59,15.00
2014,06,15,12,00,15.10
2014,06,15,12,01,15.10
2014,06,15,12,02,15.10
2014,06,15,12,03,15.20
2014,06,15,12,04,15.30
2014,06,15,12,05,15.40
2014,06,15,12,06,15.40
2014,06,15,12,07,15.50
2014,06,15,12,08,15.60
2014,06,15,12,09,15.60
2014,06,15,12,10,15.60
2014,06,15,12,11,15.50
2014,06,15,12,12,15.50
2014,06,15,12,13,15.60
2014,06,15,12,14,15.60
2014,06,15,12,15,15.70
2014,06,15,12,16,15.80
2014,06,15,12,17,15.80
2014,06,15,12,18,15.90
2014,06,15,12,19,15.90
2014,06,15,12,20,15.80
2014,06,15,12,21,15.70
2014,06,15,12,22,15.70
2014,06,15,12,23,15.60
2014,06,15,12,24,15.60
2014,06,15,12,25,15.60
2014,06,15,12,26,15.60
2014,06,15,12,27,15.60
2014,06,15,12,28,15.60
2014,06,15,12,29,15.60
2014,06,15,12,30,15.70
2014,06,15,12,31,15.80
2014,06,15,12,32,15.90
2014,06,15,12,33,15.90
2014,06,15,12,34,16.00
2014,06,15,12,35,16.00
2014,06,15,12,36,16.00
2014,06,15,12,37,16.00
2014,06,15,12,38,15.90
2014,06,15,12,39,15.90
2014,06,15,12,40,15.90
2014,06,15,12,41,15.90
2014,06,15,12,42,15.90
2014,06,15,12,43,16.00
2014,06,15,12,44,16.10
2014,06,15,12,45,16.10
2014,06,15,12,46,16.10
2014,06,15,12,47,16.00
2014,06,15,12,48,16.10
2014,06,15,12,49,16.20
2014,06,15,12,50,16.20
2014,06,15,12,51,16.20
2014,06,15,12,52,16.30
2014,06,15,12,53,16.30
2014,06,15,12,54,16.30
2014,06,15,12,55,16.20
2014,06,15,12,56,16.20
2014,06,15,12,57,16.10
2014,06,15,12,58,15.90
2014,06,15,12,59,15.70
2014,06,15,13,00,15.60
2014,06,15,13,01,15.50
2014,06,15,13,02,15.40
2014,06,15,13,03,15.40
2014,06,15,13,04,15.40
2014,06,15,13,05,15.40
2014,06,15,13,06,15.40
2014,06,15,13,07,15.40
2014,06,15,13,08,15.40
2014,06,15,13,09,15.50
2014,06,15,13,10,15.60
2014,06,15,13,11,15.80
2014,06,15,13,12,15.80
2014,06,15,13,13,15.90
2014,06,15,13,14,15.90
2014,06,15,13,15,15.90
2014,06,15,13,16,15.90
2014,06,15,13,17,16.00
2014,06,15,13,18,16.00
2014,06,15,13,19,16.00
2014,06,15,13,20,16.10
2014,06,15,13,21,16.10
2014,06,15,13,22,16.20
2014,06,15,13,23,16.30
2014,06,15,13,24,16.40
2014,06,15,13,25,16.50
2014,06,15,13,26,16.70
2014,06,15,13,27,16.70
2014,06,15,13,28,16.60
2014,06,15,13,29,16.70
2014,06,15,13,30,16.60
2014,06,15,13,31,16.50
2014,06,15,13,32,16.50
2014,06,15,13,33,16.40
2014,06,15,13,34,16.40
2014,06,15,13,35,16.40
2014,06,15,13,36,16.40
2014,06,15,13,37,16.40
2014,06,15,13,38,16.50
2014,06,15,13,39,16.50
2014,06,15,13,40,16.50
2014,06,15,13,41,16.50
2014,06,15,13,42,16.60
2014,06,15,13,43,16.60
2014,06,15,13,44,16.60
2014,06,15,13,45,16.70
2014,06,15,13,46,16.70
2014,06,15,13,47,16.70
2014,06,15,13,48,16.70
2014,06,15,13,49,16.80
2014,06,15,13,50,16.80
2014,06,15,13,51,16.80
2014,06,15,13,52,16.80
2014,06,15,13,53,16.80
2014,06,15,13,54,16.90
2014,06,15,13,55,17.00
2014,06,15,13,56,17.10
2014,06,15,13,57,17.20
2014,06,15,13,58,17.30
2014,06,15,13,59,17.50
2014,06,15,14,00,17.60
2014,06,15,14,01,17.70
2014,06,15,14,02,17.70
2014,06,15,14,03,17.70
2014,06,15,14,04,17.80
2014,06,15,14,05,17.80
2014,06,15,14,06,17.80
2014,06,15,14,07,17.90
2014,06,15,14,08,17.80
2014,06,15,14,09,17.80
2014,06,15,14,10,17.80
2014,06,15,14,11,17.80
2014,06,15,14,12,17.90
2014,06,15,14,13,18.00
2014,06,15,14,14,18.10
2014,06,15,14,15,18.10
2014,06,15,14,16,18.20
2014,06,15,14,17,18.20
2014,06,15,14,18,18.20
2014,06,15,14,19,18.10
2014,06,15,14,20,18.10
2014,06,15,14,21,18.10
2014,06,15,14,22,18.10
2014,06,15,14,23,18.10
2014,06,15,14,24,18.30
2014,06,15,14,25,18.30
2014,06,15,14,26,18.40
2014,06,15,14,27,18.30
2014,06,15,14,28,18.10
2014,06,15,14,29,18.00
2014,06,15,14,30,17.90
2014,06,15,14,31,17.90
2014,06,15,14,32,17.90
2014,06,15,14,33,17.80
2014,06,15,14,34,17.80
2014,06,15,14,35,17.80
2014,06,15,14,36,17.80
2014,06,15,14,37,17.70
2014,06,15,14,38,17.70
2014,06,15,14,39,17.60
2014,06,15,14,40,17.60
2014,06,15,14,41,17.60
2014,06,15,14,42,17.50
2014,06,15,14,43,17.50
2014,06,15,14,44,17.50
2014,06,15,14,45,17.50
2014,06,15,14,46,17.50
2014,06,15,14,47,17.60
2014,06,15,14,48,17.70
2014,06,15,14,49,17.80
2014,06,15,14,50,17.70
2014,06,15,14,51,17.60
2014,06,15,14,52,17.50
2014,06,15,14,53,17.40
2014,06,15,14,54,17.30
2014,06,15,14,55,17.10
2014,06,15,14,56,17.10
2014,06,15,14,57,17.10
2014,06,15,14,58,17.00
2014,06,15,14,59,17.00
2014,06,15,15,00,17.00
2014,06,15,15,01,17.00
2014,06,15,15,02,17.00
2014,06,15,15,03,17.10
2014,06,15,15,04,17.10
2014,06,15,15,05,17.20
2014,06,15,15,06,17.20
2014,06,15,15,07,17.20
2014,06,15,15,08,17.10
2014,06,15,15,09,17.10
2014,06,15,15,10,17.10
2014,06,15,15,11,17.10
2014,06,15,15,12,17.10
2014,06,15,15,13,17.20
2014,06,15,15,14,17.30
2014,06,15,15,15,17.20
2014,06,15,15,16,17.10
2014,06,15,15,17,17.00
2014,06,15,15,18,17.00
2014,06,15,15,19,17.00
2014,06,15,15,20,17.10
2014,06,15,15,21,17.10
2014,06,15,15,22,17.00
2014,06,15,15,23,16.90
2014,06,15,15,24,16.80
2014,06,15,15,25,16.80
2014,06,15,15,26,16.80
2014,06,15,15,27,16.70
2014,06,15,15,28,16.70
2014,06,15,15,29,16.60
2014,06,15,15,30,16.60
2014,06,15,15,31,16.60
2014,06,15,15,32,16.60
2014,06,15,15,33,16.50
2014,06,15,15,34,16.50
2014,06,15,15,35,16.70
2014,06,15,15,36,16.80
2014,06,15,15,37,16.80
2014,06,15,15,38,16.80
2014,06,15,15,39,16.80
2014,06,15,15,40,16.80
2014,06,15,15,41,16.80
2014,06,15,15,42,16.80
2014,06,15,15,43,16.90
2014,06,15,15,44,16.90
2014,06,15,15,45,16.90
2014,06,15,15,46,16.80
2014,06,15,15,47,16.80
2014,06,15,15,48,16.70
2014,06,15,15,49,16.70
2014,06,15,15,50,16.70
2014,06,15,15,51,16.70
2014,06,15,15,52,16.70
2014,06,15,15,53,16.70
2014,06,15,15,54,16.70
2014,06,15,15,55,16.60
2014,06,15,15,56,16.50
2014,06,15,15,57,16.40
2014,06,15,15,58,16.40
2014,06,15,15,59,16.40
2014,06,15,16,00,16.40
2014,06,15,16,01,16.40
2014,06,15,16,02,16.40
2014,06,15,16,03,16.40
2014,06,15,16,04,16.50
2014,06,15,16,05,16.50
2014,06,15,16,06,16.60
2014,06,15,16,07,16.50
2014,06,15,16,08,16.40
2014,06,15,16,09,16.40
2014,06,15,16,10,16.40
2014,06,15,16,11,16.30
2014,06,15,16,12,16.30
2014,06,15,16,13,16.30
2014,06,15,16,14,16.30
2014,06,15,16,15,16.20
2014,06,15,16,16,16.20
2014,06,15,16,17,16.20
2014,06,15,16,18,16.20
2014,06,15,16,19,16.20
2014,06,15,16,20,16.30
2014,06,15,16,21,16.30
2014,06,15,16,22,16.30
2014,06,15,16,23,16.30
2014,06,15,16,24,16.30
2014,06,15,16,25,16.40
2014,06,15,16,26,16.40
2014,06,15,16,27,16.30
2014,06,15,16,28,16.20
2014,06,15,16,29,16.20
2014,06,15,16,30,16.20
2014,06,15,16,31,16.30
2014,06,15,16,32,16.30
2014,06,15,16,33,16.30
2014,06,15,16,34,16.30
2014,06,15,16,35,16.30
2014,06,15,16,36,16.30
2014,06,15,16,37,16.20
2014,06,15,16,38,16.20
2014,06,15,16,39,16.20
2014,06,15,16,40,16.30
2014,06,15,16,41,16.40
2014,06,15,16,42,16.40
2014,06,15,16,43,16.50
2014,06,15,16,44,16.50
2014,06,15,16,45,16.40
2014,06,15,16,46,16.30
2014,06,15,16,47,16.30
2014,06,15,16,48,16.30
2014,06,15,16,49,16.30
2014,06,15,16,50,16.30
2014,06,15,16,51,16.40
2014,06,15,16,52,16.40
2014,06,15,16,53,16.30
2014,06,15,16,54,16.20
2014,06,15,16,55,16.20
2014,06,15,16,56,16.10
2014,06,15,16,57,16.10
2014,06,15,16,58,16.20
2014,06,15,16,59,16.20
2014,06,15,17,00,16.30
2014,06,15,17,01,16.30
2014,06,15,17,02,16.30
2014,06,15,17,03,16.30
2014,06,15,17,04,16.30
2014,06,15,17,05,16.40
2014,06,15,17,06,16.40
2014,06,15,17,07,16.40
2014,06,15,17,08,16.50
2014,06,15,17,09,16.50
2014,06,15,17,10,16.50
2014,06,15,17,11,16.40
2014,06,15,17,12,16.40
2014,06,15,17,13,16.40
2014,06,15,17,14,16.40
2014,06,15,17,15,16.40
2014,06,15,17,16,16.40
2014,06,15,17,17,16.40
2014,06,15,17,18,16.40
2014,06,15,17,19,16.40
2014,06,15,17,20,16.30
2014,06,15,17,21,16.40
2014,06,15,17,22,16.40
2014,06,15,17,23,16.40
2014,06,15,17,24,16.30
2014,06,15,17,25,16.30
2014,06,15,17,26,16.20
2014,06,15,17,27,16.10
2014,06,15,17,28,16.00
2014,06,15,17,29,16.00
2014,06,15,17,30,15.90
2014,06,15,17,31,15.90
2014,06,15,17,32,16.00
2014,06,15,17,33,16.00
2014,06,15,17,34,16.00
2014,06,15,17,35,16.00
2014,06,15,17,36,16.00
2014,06,15,17,37,15.90
2014,06,15,17,38,15.90
2014,06,15,17,39,15.90
2014,06,15,17,40,16.00
2014,06,15,17,41,16.00
2014,06,15,17,42,16.10
2014,06,15,17,43,16.10
2014,06,15,17,44,16.20
2014,06,15,17,45,16.20
2014,06,15,17,46,16.10
2014,06,15,17,47,16.10
2014,06,15,17,48,16.00
2014,06,15,17,49,16.00
2014,06,15,17,50,15.90
2014,06,15,17,51,15.90
2014,06,15,17,52,15.90
2014,06,15,17,53,15.90
2014,06,15,17,54,15.90
2014,06,15,17,55,15.90
2014,06,15,17,56,15.90
2014,06,15,17,57,15.90
2014,06,15,17,58,15.90
2014,06,15,17,59,15.90
2014,06,15,18,00,15.90
2014,06,15,18,01,15.90
2014,06,15,18,02,15.90
2014,06,15,18,03,15.90
2014,06,15,18,04,15.90
2014,06,15,18,05,15.90
2014,06,15,18,06,15.90
2014,06,15,18,07,16.00
2014,06,15,18,08,16.00
2014,06,15,18,09,16.10
2014,06,15,18,10,16.10
2014,06,15,18,11,16.10
2014,06,15,18,12,16.10
2014,06,15,18,13,16.10
2014,06,15,18,14,16.20
2014,06,15,18,15,16.20
2014,06,15,18,16,16.20
2014,06,15,18,17,16.10
2014,06,15,18,18,16.10
2014,06,15,18,19,16.00
2014,06,15,18,20,16.10